TimeEDT,TemperatureF,Dew PointF,Humidity,Sea Level PressureIn,VisibilityMPH,Wind Direction,Wind SpeedMPH,Gust SpeedMPH,PrecipitationIn,Events,Conditions,WindDirDegrees,DateUTC
12:53 AM,48.0,42.1,80,29.78,10.0,South,4.6,-,N/A,,Unknown,180,2012-10-20 04:53:00
1:53 AM,48.0,42.1,80,29.77,10.0,South,4.6,-,N/A,,Unknown,170,2012-10-20 05:53:00
2:53 AM,48.9,42.1,77,29.78,10.0,South,6.9,-,N/A,,Unknown,180,2012-10-20 06:53:00
3:53 AM,48.9,42.1,77,29.79,10.0,SW,6.9,-,N/A,,Unknown,230,2012-10-20 07:53:00
4:53 AM,48.9,41.0,74,29.79,10.0,SW,4.6,-,N/A,,Unknown,230,2012-10-20 08:53:00
5:53 AM,48.9,41.0,74,29.80,10.0,SSW,8.1,-,N/A,,Unknown,210,2012-10-20 09:53:00
6:53 AM,48.0,41.0,77,29.81,10.0,SW,3.5,-,N/A,,Unknown,230,2012-10-20 10:53:00
7:53 AM,48.0,42.1,80,29.83,10.0,SSW,6.9,-,N/A,,Unknown,200,2012-10-20 11:53:00
8:53 AM,48.0,42.1,80,29.84,10.0,SSW,8.1,-,N/A,,Scattered Clouds,210,2012-10-20 12:53:00
9:53 AM,50.0,41.0,71,29.85,10.0,SW,9.2,18.4,N/A,,Unknown,220,2012-10-20 13:53:00
10:53 AM,52.0,42.1,69,29.85,10.0,SW,8.1,17.3,N/A,,Scattered Clouds,220,2012-10-20 14:53:00
11:53 AM,53.1,42.1,66,29.86,10.0,SW,9.2,-,N/A,,Mostly Cloudy,220,2012-10-20 15:53:00
12:53 PM,54.0,41.0,62,29.86,10.0,WSW,12.7,17.3,N/A,,Mostly Cloudy,250,2012-10-20 16:53:00
1:53 PM,54.0,41.0,62,29.86,10.0,West,12.7,20.7,N/A,,Mostly Cloudy,270,2012-10-20 17:53:00
3:00 PM,55.4,41.0,58,29.87,9.0,West,11.5,24.2,0.00,Rain,Light Rain,270,2012-10-20 19:00:00
3:06 PM,51.8,44.6,76,29.88,2.5,WNW,18.4,32.2,0.03,Rain,Light Rain,290,2012-10-20 19:06:00
3:16 PM,50.0,44.6,82,29.88,3.0,West,10.4,24.2,0.05,Rain,Light Rain,280,2012-10-20 19:16:00
3:53 PM,51.1,44.1,77,29.88,3.0,West,10.4,20.7,0.05,Rain,Light Rain,260,2012-10-20 19:53:00
4:53 PM,52.0,43.0,71,29.91,10.0,West,10.4,19.6,0.00,,Mostly Cloudy,260,2012-10-20 20:53:00
5:53 PM,54.0,43.0,66,29.92,10.0,WNW,3.5,-,N/A,,Mostly Cloudy,290,2012-10-20 21:53:00
6:53 PM,50.0,42.1,74,29.94,10.0,West,3.5,-,0.00,,Mostly Cloudy,260,2012-10-20 22:53:00
7:53 PM,48.0,41.0,77,29.96,10.0,SW,4.6,-,N/A,,Scattered Clouds,220,2012-10-20 23:53:00
8:53 PM,50.0,41.0,71,29.97,10.0,West,4.6,-,N/A,,Scattered Clouds,260,2012-10-21 00:53:00
9:53 PM,48.0,41.0,77,29.99,10.0,West,3.5,-,N/A,,Scattered Clouds,270,2012-10-21 01:53:00
10:53 PM,48.9,42.1,77,30.01,10.0,WSW,4.6,-,N/A,,Scattered Clouds,240,2012-10-21 02:53:00
11:53 PM,48.9,43.0,80,30.03,10.0,SW,4.6,-,N/A,,Unknown,230,2012-10-21 03:53:00